Time,TemperatureF,DewpointF,PressureIn,WindDirection,WindDirectionDegrees,WindSpeedMPH,WindSpeedGustMPH,Humidity,HourlyPrecipIn,Conditions,Clouds,dailyrainin,SoftwareType,DateUTC
2013-04-08 00:00:00,40.6,33.0,29.87,West,270,1.0,0.0,74,0.00,RA,RA,0.00,WeatherDisplay:10.37,2013-04-08 04:00:00,
2013-04-08 00:05:00,40.6,33.0,29.87,West,270,1.7,2.3,74,0.00,RA,,0.00,WeatherDisplay:10.37,2013-04-08 04:05:00,
2013-04-08 00:11:00,40.6,33.0,29.87,West,270,1.7,2.3,74,0.00,CLR,,0.00,WeatherDisplay:10.37,2013-04-08 04:11:00,
2013-04-08 00:16:00,40.8,32.8,29.87,West,270,1.7,2.3,73,0.00,CLR,,0.00,WeatherDisplay:10.37,2013-04-08 04:16:00,
2013-04-08 00:21:00,41.0,32.7,29.87,West,270,1.7,3.5,72,0.00,CLR,,0.00,WeatherDisplay:10.37,2013-04-08 04:21:00,
2013-04-08 00:26:00,41.0,33.0,29.87,West,270,1.7,3.5,73,0.00,CLR,,0.00,WeatherDisplay:10.37,2013-04-08 04:26:00,
2013-04-08 00:31:00,41.0,33.0,29.87,West,270,0.7,2.4,73,0.00,CLR,,0.00,WeatherDisplay:10.37,2013-04-08 04:31:00,
2013-04-08 00:36:00,41.0,33.0,29.87,West,270,1.7,3.5,73,0.00,CLR,,0.00,WeatherDisplay:10.37,2013-04-08 04:36:00,
2013-04-08 00:42:00,41.0,33.0,29.88,West,270,1.7,3.5,73,0.00,CLR,,0.00,WeatherDisplay:10.37,2013-04-08 04:42:00,
2013-04-08 00:47:00,41.0,33.0,29.88,West,270,1.7,2.3,73,0.00,CLR,,0.00,WeatherDisplay:10.37,2013-04-08 04:47:00,
2013-04-08 00:52:00,40.8,33.2,29.88,West,270,2.4,4.6,74,0.00,CLR,,0.00,WeatherDisplay:10.37,2013-04-08 04:52:00,
2013-04-08 00:57:00,40.8,33.2,29.88,West,270,0.7,2.3,74,0.00,CLR,,0.00,WeatherDisplay:10.37,2013-04-08 04:57:00,
2013-04-08 01:02:00,40.8,33.2,29.88,West,270,1.7,3.5,74,0.00,CLR,,0.00,WeatherDisplay:10.37,2013-04-08 05:02:00,
2013-04-08 01:07:00,41.0,33.3,29.89,West,270,1.7,4.6,74,0.00,CLR,,0.00,WeatherDisplay:10.37,2013-04-08 05:07:00,
2013-04-08 01:12:00,41.0,33.3,29.89,West,270,1.7,3.5,74,0.00,CLR,,0.00,WeatherDisplay:10.37,2013-04-08 05:12:00,
2013-04-08 01:17:00,41.0,33.3,29.88,West,270,1.7,2.3,74,0.00,CLR,,0.00,WeatherDisplay:10.37,2013-04-08 05:17:00,
2013-04-08 01:22:00,41.0,33.0,29.88,West,270,1.7,3.5,73,0.00,CLR,,0.00,WeatherDisplay:10.37,2013-04-08 05:22:00,
2013-04-08 01:27:00,40.6,33.0,29.88,West,270,1.7,3.5,74,0.00,CLR,,0.00,WeatherDisplay:10.37,2013-04-08 05:27:00,
2013-04-08 01:32:00,40.8,33.2,29.87,West,270,1.7,3.5,74,0.00,CLR,,0.00,WeatherDisplay:10.37,2013-04-08 05:32:00,
2013-04-08 01:37:00,40.6,33.0,29.88,West,270,1.7,3.5,74,0.00,CLR,,0.00,WeatherDisplay:10.37,2013-04-08 05:37:00,
2013-04-08 01:42:00,40.6,33.0,29.88,West,270,2.4,4.6,74,0.00,CLR,,0.00,WeatherDisplay:10.37,2013-04-08 05:42:00,
2013-04-08 01:47:00,40.8,33.5,29.88,West,270,3.3,4.6,75,0.00,CLR,,0.00,WeatherDisplay:10.37,2013-04-08 05:47:00,
2013-04-08 01:53:00,41.2,33.5,29.88,West,270,2.4,4.6,74,0.00,CLR,,0.00,WeatherDisplay:10.37,2013-04-08 05:53:00,
2013-04-08 01:58:00,40.8,33.5,29.89,West,270,1.7,2.3,75,0.00,CLR,,0.00,WeatherDisplay:10.37,2013-04-08 05:58:00,
2013-04-08 02:03:00,40.8,33.5,29.89,West,270,1.7,3.5,75,0.00,CLR,,0.00,WeatherDisplay:10.37,2013-04-08 06:03:00,
2013-04-08 02:08:00,41.0,33.3,29.89,West,270,3.3,4.6,74,0.00,CLR,,0.00,WeatherDisplay:10.37,2013-04-08 06:08:00,
2013-04-08 02:13:00,41.2,33.5,29.90,SW,225,4.7,6.9,74,0.00,CLR,,0.00,WeatherDisplay:10.37,2013-04-08 06:13:00,
2013-04-08 02:18:00,41.4,33.7,29.90,SW,225,4.0,4.6,74,0.00,CLR,,0.00,WeatherDisplay:10.37,2013-04-08 06:18:00,
2013-04-08 02:23:00,41.4,33.7,29.89,SW,225,2.4,4.6,74,0.00,CLR,,0.00,WeatherDisplay:10.37,2013-04-08 06:23:00,
2013-04-08 02:28:00,41.4,33.7,29.89,SW,225,3.3,4.6,74,0.00,CLR,,0.00,WeatherDisplay:10.37,2013-04-08 06:28:00,
2013-04-08 02:33:00,41.4,33.7,29.89,SW,225,4.7,6.9,74,0.00,CLR,,0.00,WeatherDisplay:10.37,2013-04-08 06:33:00,
2013-04-08 02:38:00,41.4,33.7,29.89,SW,225,4.7,8.1,74,0.00,CLR,,0.00,WeatherDisplay:10.37,2013-04-08 06:38:00,
2013-04-08 02:43:00,41.5,33.9,29.89,SW,225,3.3,5.8,74,0.00,CLR,,0.00,WeatherDisplay:10.37,2013-04-08 06:43:00,
2013-04-08 02:48:00,41.5,33.9,29.90,SW,225,3.3,4.6,74,0.00,CLR,,0.00,WeatherDisplay:10.37,2013-04-08 06:48:00,
2013-04-08 02:53:00,41.7,34.0,29.89,SW,225,3.3,6.9,74,0.00,CLR,,0.00,WeatherDisplay:10.37,2013-04-08 06:53:00,
2013-04-08 02:58:00,41.7,34.0,29.89,SW,225,3.3,4.6,74,0.00,CLR,,0.00,WeatherDisplay:10.37,2013-04-08 06:58:00,
2013-04-08 03:03:00,41.9,34.2,29.89,SW,225,4.0,5.8,74,0.00,CLR,,0.00,WeatherDisplay:10.37,2013-04-08 07:03:00,
2013-04-08 03:08:00,41.9,34.2,29.89,SW,225,3.3,4.6,74,0.00,CLR,,0.00,WeatherDisplay:10.37,2013-04-08 07:08:00,
2013-04-08 03:13:00,41.9,34.2,29.89,SW,225,4.7,6.9,74,0.00,CLR,,0.00,WeatherDisplay:10.37,2013-04-08 07:13:00,
2013-04-08 03:18:00,42.1,34.4,29.89,SW,225,4.0,6.9,74,0.00,CLR,,0.00,WeatherDisplay:10.37,2013-04-08 07:18:00,
2013-04-08 03:23:00,42.1,34.0,29.89,SSW,202,6.4,6.9,73,0.00,CLR,,0.00,WeatherDisplay:10.37,2013-04-08 07:23:00,
2013-04-08 03:28:00,42.3,34.2,29.89,SSW,202,6.4,9.2,73,0.00,CLR,,0.00,WeatherDisplay:10.37,2013-04-08 07:28:00,
2013-04-08 03:33:00,42.4,34.4,29.89,SSW,202,5.7,8.1,73,0.00,CLR,,0.00,WeatherDisplay:10.37,2013-04-08 07:33:00,
2013-04-08 03:38:00,42.8,34.4,29.89,SSW,202,6.4,8.1,72,0.00,CLR,,0.00,WeatherDisplay:10.37,2013-04-08 07:38:00,
2013-04-08 03:43:00,42.8,34.4,29.89,South,180,8.1,10.4,72,0.00,CLR,,0.00,WeatherDisplay:10.37,2013-04-08 07:43:00,
2013-04-08 03:48:00,43.2,34.4,29.91,South,180,8.8,12.7,71,0.00,CLR,,0.00,WeatherDisplay:10.37,2013-04-08 07:48:00,
2013-04-08 03:53:00,43.3,34.6,29.90,South,180,5.7,5.7,71,0.00,CLR,,0.00,WeatherDisplay:10.37,2013-04-08 07:53:00,
2013-04-08 03:59:00,43.2,34.7,29.89,South,180,5.7,8.1,72,0.00,CLR,,0.00,WeatherDisplay:10.37,2013-04-08 07:59:00,
2013-04-08 04:04:00,43.3,34.9,29.89,South,180,5.7,9.2,72,0.00,CLR,,0.00,WeatherDisplay:10.37,2013-04-08 08:04:00,
2013-04-08 04:10:00,43.3,34.9,29.89,South,180,3.3,9.2,72,0.00,CLR,,0.00,WeatherDisplay:10.37,2013-04-08 08:10:00,
2013-04-08 04:15:00,43.3,34.9,29.88,South,180,4.7,9.2,72,0.00,CLR,,0.00,WeatherDisplay:10.37,2013-04-08 08:15:00,
2013-04-08 04:20:00,43.3,34.9,29.88,South,180,2.4,6.9,72,0.00,CLR,,0.00,WeatherDisplay:10.37,2013-04-08 08:20:00,
2013-04-08 04:25:00,43.3,34.9,29.88,South,180,4.7,6.9,72,0.00,CLR,,0.00,WeatherDisplay:10.37,2013-04-08 08:25:00,
2013-04-08 04:30:00,43.7,35.3,29.88,South,180,8.1,11.5,72,0.00,CLR,,0.00,WeatherDisplay:10.37,2013-04-08 08:30:00,
2013-04-08 04:35:00,43.7,34.9,29.88,South,180,5.7,9.2,71,0.00,CLR,,0.00,WeatherDisplay:10.37,2013-04-08 08:35:00,
2013-04-08 04:40:00,43.9,34.7,29.87,South,180,6.4,9.2,70,0.00,CLR,,0.00,WeatherDisplay:10.37,2013-04-08 08:40:00,
2013-04-08 04:45:00,44.1,34.9,29.88,South,180,8.8,13.8,70,0.00,CLR,,0.00,WeatherDisplay:10.37,2013-04-08 08:45:00,
2013-04-08 04:50:00,44.1,34.5,29.88,South,180,5.7,12.7,69,0.00,CLR,,0.00,WeatherDisplay:10.37,2013-04-08 08:50:00,
2013-04-08 04:55:00,44.1,34.5,29.87,South,180,8.0,0.0,69,0.00,CLR,CLR,0.00,WeatherDisplay:10.37,2013-04-08 08:55:00,
2013-04-08 05:00:00,44.2,34.7,29.87,South,180,8.0,0.0,69,0.00,CLR,CLR,0.00,WeatherDisplay:10.37,2013-04-08 09:00:00,
2013-04-08 05:05:00,44.6,34.3,29.87,South,180,8.8,12.7,67,0.00,CLR,,0.00,WeatherDisplay:10.37,2013-04-08 09:05:00,
2013-04-08 05:10:00,44.6,34.3,29.87,South,180,8.1,11.5,67,0.00,CLR,,0.00,WeatherDisplay:10.37,2013-04-08 09:10:00,
2013-04-08 05:15:00,45.0,34.7,29.86,South,180,5.7,9.2,67,0.00,CLR,,0.00,WeatherDisplay:10.37,2013-04-08 09:15:00,
2013-04-08 05:20:00,45.0,34.3,29.86,South,180,9.7,13.8,66,0.00,CLR,,0.00,WeatherDisplay:10.37,2013-04-08 09:20:00,
2013-04-08 05:25:00,45.1,34.5,29.86,South,180,4.7,9.2,66,0.00,CLR,,0.00,WeatherDisplay:10.37,2013-04-08 09:25:00,
2013-04-08 05:30:00,45.1,34.5,29.85,South,180,7.4,9.2,66,0.00,CLR,,0.00,WeatherDisplay:10.37,2013-04-08 09:30:00,
2013-04-08 05:35:00,45.3,34.6,29.85,South,180,8.1,9.2,66,0.00,CLR,,0.00,WeatherDisplay:10.37,2013-04-08 09:35:00,
2013-04-08 05:40:00,45.3,34.2,29.85,South,180,10.4,14.5,65,0.00,CLR,,0.00,WeatherDisplay:10.37,2013-04-08 09:40:00,
2013-04-08 05:45:00,45.3,34.2,29.85,South,180,5.7,10.4,65,0.00,CLR,,0.00,WeatherDisplay:10.37,2013-04-08 09:45:00,
2013-04-08 05:50:00,45.3,34.2,29.85,South,180,11.4,15.0,65,0.00,CLR,,0.00,WeatherDisplay:10.37,2013-04-08 09:50:00,
2013-04-08 05:55:00,45.3,34.2,29.86,South,180,7.4,10.4,65,0.00,CLR,,0.00,WeatherDisplay:10.37,2013-04-08 09:55:00,
2013-04-08 06:01:00,45.1,34.5,29.86,South,180,5.7,12.7,66,0.00,CLR,,0.00,WeatherDisplay:10.37,2013-04-08 10:01:00,
2013-04-08 06:06:00,45.1,34.5,29.85,South,180,5.7,8.1,66,0.00,CLR,,0.00,WeatherDisplay:10.37,2013-04-08 10:06:00,
2013-04-08 06:12:00,45.1,34.5,29.85,South,180,8.8,13.8,66,0.00,CLR,,0.00,WeatherDisplay:10.37,2013-04-08 10:12:00,
2013-04-08 06:17:00,45.1,34.5,29.85,South,180,9.7,12.7,66,0.00,CLR,,0.00,WeatherDisplay:10.37,2013-04-08 10:17:00,
2013-04-08 06:22:00,45.1,34.8,29.85,South,180,7.4,10.4,67,0.00,CLR,,0.00,WeatherDisplay:10.37,2013-04-08 10:22:00,
2013-04-08 06:27:00,45.1,34.8,29.85,South,180,8.8,11.5,67,0.00,CLR,,0.00,WeatherDisplay:10.37,2013-04-08 10:27:00,
2013-04-08 06:32:00,45.1,34.8,29.85,South,180,7.4,12.7,67,0.00,CLR,,0.00,WeatherDisplay:10.37,2013-04-08 10:32:00,
2013-04-08 06:37:00,45.1,34.8,29.85,South,180,7.4,10.4,67,0.00,CLR,,0.00,WeatherDisplay:10.37,2013-04-08 10:37:00,
2013-04-08 06:42:00,45.1,35.2,29.85,South,180,7.4,11.5,68,0.00,CLR,,0.00,WeatherDisplay:10.37,2013-04-08 10:42:00,
2013-04-08 06:48:00,45.1,35.2,29.85,South,180,6.4,12.7,68,0.00,CLR,,0.00,WeatherDisplay:10.37,2013-04-08 10:48:00,
2013-04-08 06:53:00,45.1,35.2,29.86,South,180,5.7,13.8,68,0.00,CLR,,0.00,WeatherDisplay:10.37,2013-04-08 10:53:00,
2013-04-08 06:58:00,45.1,35.2,29.86,South,180,5.7,9.2,68,0.00,CLR,,0.00,WeatherDisplay:10.37,2013-04-08 10:58:00,
2013-04-08 07:03:00,45.1,35.6,29.85,South,180,6.4,9.2,69,0.00,CLR,,0.00,WeatherDisplay:10.37,2013-04-08 11:03:00,
2013-04-08 07:08:00,45.3,35.7,29.85,South,180,6.4,9.2,69,0.00,CLR,,0.00,WeatherDisplay:10.37,2013-04-08 11:08:00,
2013-04-08 07:13:00,45.3,35.7,29.85,South,180,5.7,9.2,69,0.00,CLR,,0.00,WeatherDisplay:10.37,2013-04-08 11:13:00,
2013-04-08 07:18:00,45.3,36.1,29.85,South,180,7.4,9.2,70,0.00,CLR,,0.00,WeatherDisplay:10.37,2013-04-08 11:18:00,
2013-04-08 07:23:00,45.5,36.3,29.85,South,180,6.4,9.2,70,0.00,CLR,,0.00,WeatherDisplay:10.37,2013-04-08 11:23:00,
2013-04-08 07:28:00,45.7,36.5,29.85,South,180,5.7,9.2,70,0.00,CLR,,0.00,WeatherDisplay:10.37,2013-04-08 11:28:00,
2013-04-08 07:33:00,45.9,36.6,29.85,South,180,8.1,13.8,70,0.00,CLR,,0.00,WeatherDisplay:10.37,2013-04-08 11:33:00,
2013-04-08 07:38:00,46.0,36.8,29.85,South,180,8.1,10.4,70,0.00,CLR,,0.00,WeatherDisplay:10.37,2013-04-08 11:38:00,
2013-04-08 07:43:00,46.0,36.8,29.85,South,180,8.8,15.0,70,0.00,CLR,,0.00,WeatherDisplay:10.37,2013-04-08 11:43:00,
2013-04-08 07:48:00,46.2,37.0,29.85,South,180,5.7,8.1,70,0.00,CLR,,0.00,WeatherDisplay:10.37,2013-04-08 11:48:00,
2013-04-08 07:53:00,46.2,37.3,29.85,South,180,7.4,9.2,71,0.00,CLR,,0.00,WeatherDisplay:10.37,2013-04-08 11:53:00,
2013-04-08 07:58:00,46.2,37.3,29.85,South,180,6.4,9.2,71,0.00,CLR,,0.00,WeatherDisplay:10.37,2013-04-08 11:58:00,
2013-04-08 08:03:00,46.2,37.3,29.84,South,180,7.4,10.4,71,0.00,CLR,,0.00,WeatherDisplay:10.37,2013-04-08 12:03:00,
2013-04-08 08:08:00,46.2,37.7,29.84,South,180,6.4,11.5,72,0.00,CLR,,0.00,WeatherDisplay:10.37,2013-04-08 12:08:00,
2013-04-08 08:14:00,46.2,38.0,29.85,South,180,8.1,15.0,73,0.00,CLR,,0.00,WeatherDisplay:10.37,2013-04-08 12:14:00,
2013-04-08 08:19:00,46.0,38.2,29.85,South,180,4.7,12.7,74,0.00,CLR,,0.00,WeatherDisplay:10.37,2013-04-08 12:19:00,
2013-04-08 08:24:00,46.0,38.6,29.85,South,180,5.7,10.4,75,0.00,CLR,,0.00,WeatherDisplay:10.37,2013-04-08 12:24:00,
2013-04-08 08:29:00,45.7,39.2,29.84,South,180,8.8,12.1,78,0.00,CLR,,0.00,WeatherDisplay:10.37,2013-04-08 12:29:00,
2013-04-08 08:34:00,45.1,40.0,29.83,South,180,7.4,11.5,82,0.01,RA,,0.01,WeatherDisplay:10.37,2013-04-08 12:34:00,
2013-04-08 08:39:00,44.8,40.2,29.83,South,180,7.4,13.8,84,0.02,RA,,0.02,WeatherDisplay:10.37,2013-04-08 12:39:00,
2013-04-08 08:44:00,44.4,41.1,29.83,South,180,6.4,12.7,88,0.05,RA,,0.05,WeatherDisplay:10.37,2013-04-08 12:44:00,
2013-04-08 08:49:00,44.1,41.6,29.82,South,180,8.1,15.0,91,0.06,RA,,0.07,WeatherDisplay:10.37,2013-04-08 12:49:00,
2013-04-08 08:54:00,43.9,41.7,29.81,South,180,5.7,10.4,92,0.07,RA,,0.07,WeatherDisplay:10.37,2013-04-08 12:54:00,
2013-04-08 08:59:00,43.9,42.0,29.80,South,180,6.4,9.2,93,0.08,RA,,0.08,WeatherDisplay:10.37,2013-04-08 12:59:00,
2013-04-08 09:05:00,43.9,42.5,29.78,South,180,7.0,0.0,95,0.02,RA,RA,0.09,WeatherDisplay:10.37,2013-04-08 13:05:00,
2013-04-08 09:10:00,43.9,42.8,29.77,South,180,6.4,12.7,96,0.09,RA,,0.09,WeatherDisplay:10.37,2013-04-08 13:10:00,
2013-04-08 09:15:00,43.9,43.1,29.76,South,180,7.4,12.7,97,0.09,,,0.09,WeatherDisplay:10.37,2013-04-08 13:15:00,
2013-04-08 09:20:00,44.1,43.3,29.75,South,180,7.4,11.5,97,0.09,CLR,,0.09,WeatherDisplay:10.37,2013-04-08 13:20:00,
2013-04-08 09:25:00,43.9,43.4,29.74,South,180,10.4,15.0,98,0.11,RA,,0.11,WeatherDisplay:10.37,2013-04-08 13:25:00,
2013-04-08 09:30:00,44.1,43.5,29.73,South,180,8.1,15.0,98,0.11,RA,,0.11,WeatherDisplay:10.37,2013-04-08 13:30:00,
2013-04-08 09:35:00,44.1,43.5,29.72,South,180,9.7,13.8,98,0.09,CLR,,0.11,WeatherDisplay:10.37,2013-04-08 13:35:00,
2013-04-08 09:40:00,44.2,43.7,29.72,South,180,5.7,8.1,98,0.08,CLR,,0.11,WeatherDisplay:10.37,2013-04-08 13:40:00,
2013-04-08 09:45:00,44.6,43.8,29.73,South,180,7.4,12.7,97,0.06,CLR,,0.11,WeatherDisplay:10.37,2013-04-08 13:45:00,
2013-04-08 09:50:00,44.6,43.8,29.72,South,180,5.7,12.7,97,0.08,RA,,0.14,WeatherDisplay:10.37,2013-04-08 13:50:00,
2013-04-08 09:55:00,44.6,43.8,29.71,South,180,6.4,9.2,97,0.08,RA,,0.15,WeatherDisplay:10.37,2013-04-08 13:55:00,
2013-04-08 10:00:00,44.8,44.0,29.70,South,180,8.1,11.5,97,0.07,RA,,0.15,WeatherDisplay:10.37,2013-04-08 14:00:00,
2013-04-08 10:05:00,45.0,44.2,29.70,South,180,5.7,11.5,97,0.08,RA,,0.17,WeatherDisplay:10.37,2013-04-08 14:05:00,
2013-04-08 10:10:00,45.3,44.5,29.70,South,180,9.7,12.7,97,0.07,RA,,0.17,WeatherDisplay:10.37,2013-04-08 14:10:00,
2013-04-08 10:15:00,45.5,44.7,29.69,South,180,8.1,12.7,97,0.07,CLR,,0.17,WeatherDisplay:10.37,2013-04-08 14:15:00,
2013-04-08 10:20:00,45.7,44.9,29.69,South,180,11.4,16.1,97,0.08,RA,,0.18,WeatherDisplay:10.37,2013-04-08 14:20:00,
2013-04-08 10:25:00,46.0,45.2,29.69,South,180,11.4,13.8,97,0.08,RA,,0.19,WeatherDisplay:10.37,2013-04-08 14:25:00,
2013-04-08 10:30:00,46.2,45.4,29.69,South,180,11.4,15.0,97,0.08,RA,,0.19,WeatherDisplay:10.37,2013-04-08 14:30:00,
2013-04-08 10:35:00,46.6,46.3,29.67,SE,135,9.7,15.0,99,0.08,,,0.19,WeatherDisplay:10.37,2013-04-08 14:35:00,
2013-04-08 10:40:00,46.9,46.7,29.67,SE,135,7.7,12.7,99,0.08,CLR,,0.19,WeatherDisplay:10.37,2013-04-08 14:40:00,
2013-04-08 10:45:00,47.7,47.4,29.67,East,90,9.7,15.0,99,0.08,CLR,,0.19,WeatherDisplay:10.37,2013-04-08 14:45:00,
2013-04-08 10:50:00,48.4,48.1,29.67,East,90,8.8,19.6,99,0.05,CLR,,0.19,WeatherDisplay:10.37,2013-04-08 14:50:00,
2013-04-08 10:55:00,48.9,48.7,29.67,ENE,68,8.8,15.0,99,0.04,CLR,,0.19,WeatherDisplay:10.37,2013-04-08 14:55:00,
2013-04-08 11:00:00,49.5,49.2,29.66,NE,45,12.5,23.0,99,0.04,CLR,,0.19,WeatherDisplay:10.37,2013-04-08 15:00:00,
2013-04-08 11:05:00,50.5,50.0,29.65,NE,45,7.7,17.3,98,0.02,CLR,,0.19,WeatherDisplay:10.37,2013-04-08 15:05:00,
2013-04-08 11:10:00,52.3,51.5,29.65,NE,45,10.5,21.9,97,0.02,CLR,,0.19,WeatherDisplay:10.37,2013-04-08 15:10:00,
2013-04-08 11:15:00,52.5,51.1,29.65,NE,45,7.7,15.0,95,0.02,CLR,,0.19,WeatherDisplay:10.37,2013-04-08 15:15:00,
2013-04-08 11:20:00,53.2,51.6,29.65,NE,45,13.7,18.5,94,0.01,CLR,,0.19,WeatherDisplay:10.37,2013-04-08 15:20:00,
2013-04-08 11:26:00,53.6,51.0,29.65,NE,45,12.5,21.9,91,0.00,CLR,,0.19,WeatherDisplay:10.37,2013-04-08 15:26:00,
2013-04-08 11:31:00,54.1,51.6,29.65,NE,45,9.7,23.0,91,0.00,CLR,,0.19,WeatherDisplay:10.37,2013-04-08 15:31:00,
2013-04-08 11:36:00,54.7,52.1,29.64,NE,45,7.7,13.8,91,0.00,CLR,,0.19,WeatherDisplay:10.37,2013-04-08 15:36:00,
2013-04-08 11:41:00,54.9,52.0,29.64,NE,45,8.8,13.8,90,0.00,CLR,,0.19,WeatherDisplay:10.37,2013-04-08 15:41:00,
2013-04-08 11:46:00,55.0,52.2,29.65,NE,45,5.7,17.3,90,0.00,CLR,,0.19,WeatherDisplay:10.37,2013-04-08 15:46:00,
2013-04-08 11:51:00,55.2,52.3,29.63,NE,45,6.8,15.0,90,0.00,CLR,,0.19,WeatherDisplay:10.37,2013-04-08 15:51:00,
2013-04-08 11:56:00,55.6,52.4,29.64,NE,45,9.7,15.0,89,0.00,CLR,,0.19,WeatherDisplay:10.37,2013-04-08 15:56:00,
2013-04-08 12:02:00,55.9,52.7,29.63,NE,45,10.5,23.0,89,0.00,CLR,,0.19,WeatherDisplay:10.37,2013-04-08 16:02:00,
2013-04-08 12:07:00,56.3,53.1,29.63,NE,45,5.7,11.5,89,0.00,CLR,,0.19,WeatherDisplay:10.37,2013-04-08 16:07:00,
2013-04-08 12:12:00,56.5,53.3,29.63,NE,45,9.7,17.3,89,0.00,CLR,,0.19,WeatherDisplay:10.37,2013-04-08 16:12:00,
2013-04-08 12:17:00,56.8,53.6,29.63,NE,45,6.8,13.8,89,0.00,CLR,,0.19,WeatherDisplay:10.37,2013-04-08 16:17:00,
2013-04-08 12:22:00,57.4,53.9,29.63,NE,45,11.7,15.0,88,0.00,CLR,,0.19,WeatherDisplay:10.37,2013-04-08 16:22:00,
2013-04-08 12:27:00,58.3,54.7,29.62,NE,45,10.5,12.7,88,0.00,CLR,,0.19,WeatherDisplay:10.37,2013-04-08 16:27:00,
2013-04-08 12:32:00,59.0,54.8,29.63,NE,45,7.7,13.8,86,0.00,CLR,,0.19,WeatherDisplay:10.37,2013-04-08 16:32:00,
2013-04-08 12:37:00,60.6,56.4,29.62,NE,45,11.7,17.4,86,0.00,CLR,,0.19,WeatherDisplay:10.37,2013-04-08 16:37:00,
2013-04-08 12:42:00,62.1,56.5,29.62,NE,45,12.5,20.7,82,0.00,CLR,,0.19,WeatherDisplay:10.37,2013-04-08 16:42:00,
2013-04-08 12:47:00,63.7,57.7,29.61,NE,45,14.5,23.0,81,0.00,CLR,,0.19,WeatherDisplay:10.37,2013-04-08 16:47:00,
2013-04-08 12:52:00,63.5,56.2,29.61,NE,45,18.5,20.7,77,0.00,CLR,,0.19,WeatherDisplay:10.37,2013-04-08 16:52:00,
2013-04-08 12:57:00,63.5,56.2,29.62,NW,315,15.4,19.5,77,0.00,CLR,,0.19,WeatherDisplay:10.37,2013-04-08 16:57:00,
2013-04-08 13:02:00,63.9,56.1,29.62,NW,315,17.8,25.3,76,0.00,CLR,,0.19,WeatherDisplay:10.37,2013-04-08 17:02:00,
2013-04-08 13:07:00,64.9,54.5,29.62,NW,315,17.8,39.1,69,0.01,RA,,0.20,WeatherDisplay:10.37,2013-04-08 17:07:00,
2013-04-08 13:12:00,65.7,54.4,29.62,NW,315,23.5,33.4,67,0.01,RA,,0.20,WeatherDisplay:10.37,2013-04-08 17:12:00,
2013-04-08 13:17:00,65.7,54.0,29.61,NW,315,26.6,37.0,66,0.01,,,0.20,WeatherDisplay:10.37,2013-04-08 17:17:00,
2013-04-08 13:22:00,65.7,54.0,29.62,NW,315,13.8,33.4,66,0.01,CLR,,0.20,WeatherDisplay:10.37,2013-04-08 17:22:00,
2013-04-08 13:27:00,64.8,52.7,29.61,NW,315,33.9,38.0,65,0.01,,,0.20,WeatherDisplay:10.37,2013-04-08 17:27:00,
2013-04-08 13:32:00,63.7,51.7,29.61,NW,315,24.2,33.4,65,0.01,CLR,,0.20,WeatherDisplay:10.37,2013-04-08 17:32:00,
2013-04-08 13:37:00,63.1,51.2,29.61,NW,315,13.8,29.9,65,0.01,CLR,,0.20,WeatherDisplay:10.37,2013-04-08 17:37:00,
2013-04-08 13:43:00,63.1,51.6,29.62,West,270,20.9,28.2,66,0.01,CLR,,0.20,WeatherDisplay:10.37,2013-04-08 17:43:00,
2013-04-08 13:48:00,62.8,51.7,29.62,West,270,21.8,29.9,67,0.01,CLR,,0.20,WeatherDisplay:10.37,2013-04-08 17:48:00,
2013-04-08 13:53:00,62.2,51.9,29.62,West,270,17.8,32.2,69,0.01,CLR,,0.20,WeatherDisplay:10.37,2013-04-08 17:53:00,
2013-04-08 13:58:00,61.7,51.4,29.62,West,270,16.8,29.9,69,0.01,CLR,,0.20,WeatherDisplay:10.37,2013-04-08 17:58:00,
2013-04-08 14:03:00,61.2,50.9,29.62,West,270,15.4,24.2,69,0.01,CLR,,0.20,WeatherDisplay:10.37,2013-04-08 18:03:00,
2013-04-08 14:08:00,61.2,51.3,29.63,West,270,24.2,32.2,70,0.00,CLR,,0.20,WeatherDisplay:10.37,2013-04-08 18:08:00,
2013-04-08 14:13:00,61.5,51.6,29.63,West,270,15.4,33.4,70,0.00,CLR,,0.20,WeatherDisplay:10.37,2013-04-08 18:13:00,
2013-04-08 14:18:00,61.7,51.0,29.64,SW,225,20.2,32.2,68,0.00,CLR,,0.20,WeatherDisplay:10.37,2013-04-08 18:18:00,
2013-04-08 14:23:00,61.3,50.3,29.64,SW,225,16.1,27.6,67,0.00,CLR,,0.20,WeatherDisplay:10.37,2013-04-08 18:23:00,
2013-04-08 14:28:00,61.5,50.1,29.65,SW,225,21.8,31.1,66,0.00,CLR,,0.20,WeatherDisplay:10.37,2013-04-08 18:28:00,
2013-04-08 14:33:00,61.5,50.1,29.65,South,180,13.8,27.6,66,0.00,CLR,,0.20,WeatherDisplay:10.37,2013-04-08 18:33:00,
2013-04-08 14:38:00,61.3,50.3,29.65,South,180,12.1,20.7,67,0.00,CLR,,0.20,WeatherDisplay:10.37,2013-04-08 18:38:00,
2013-04-08 14:43:00,61.5,50.5,29.65,South,180,14.5,25.3,67,0.00,CLR,,0.20,WeatherDisplay:10.37,2013-04-08 18:43:00,
2013-04-08 14:48:00,61.5,50.1,29.65,South,180,19.5,31.1,66,0.00,CLR,,0.20,WeatherDisplay:10.37,2013-04-08 18:48:00,
2013-04-08 14:53:00,61.5,50.1,29.66,South,180,17.8,28.8,66,0.00,CLR,,0.20,WeatherDisplay:10.37,2013-04-08 18:53:00,
2013-04-08 14:58:00,62.1,50.6,29.66,South,180,21.8,33.4,66,0.00,CLR,,0.20,WeatherDisplay:10.37,2013-04-08 18:58:00,
2013-04-08 15:03:00,62.1,50.6,29.65,South,180,16.8,23.0,66,0.00,CLR,,0.20,WeatherDisplay:10.37,2013-04-08 19:03:00,
2013-04-08 15:08:00,62.2,50.3,29.66,South,180,17.8,27.6,65,0.00,CLR,,0.20,WeatherDisplay:10.37,2013-04-08 19:08:00,
2013-04-08 15:13:00,62.2,50.7,29.66,South,180,22.5,29.9,66,0.00,CLR,,0.20,WeatherDisplay:10.37,2013-04-08 19:13:00,
2013-04-08 15:18:00,61.9,50.0,29.66,South,180,14.5,23.0,65,0.00,CLR,,0.20,WeatherDisplay:10.37,2013-04-08 19:18:00,
2013-04-08 15:23:00,61.5,49.6,29.67,South,180,19.5,28.8,65,0.00,CLR,,0.20,WeatherDisplay:10.37,2013-04-08 19:23:00,
2013-04-08 15:28:00,61.0,49.1,29.67,South,180,18.5,31.5,65,0.00,CLR,,0.20,WeatherDisplay:10.37,2013-04-08 19:28:00,
2013-04-08 15:33:00,60.3,48.9,29.67,South,180,16.1,31.1,66,0.00,CLR,,0.20,WeatherDisplay:10.37,2013-04-08 19:33:00,
2013-04-08 15:38:00,59.4,48.0,29.68,South,180,14.5,26.5,66,0.00,CLR,,0.20,WeatherDisplay:10.37,2013-04-08 19:38:00,
2013-04-08 15:43:00,58.8,47.9,29.68,South,180,11.4,19.6,67,0.00,CLR,,0.20,WeatherDisplay:10.37,2013-04-08 19:43:00,
2013-04-08 15:48:00,58.3,47.8,29.68,South,180,11.4,20.7,68,0.00,CLR,,0.20,WeatherDisplay:10.37,2013-04-08 19:48:00,
2013-04-08 15:53:00,57.2,47.1,29.68,South,180,12.1,17.3,69,0.00,CLR,,0.20,WeatherDisplay:10.37,2013-04-08 19:53:00,
2013-04-08 15:58:00,56.8,47.2,29.67,SE,135,13.7,21.9,70,0.00,CLR,,0.20,WeatherDisplay:10.37,2013-04-08 19:58:00,
2013-04-08 16:03:00,56.8,47.2,29.67,NW,315,12.1,20.7,70,0.00,CLR,,0.20,WeatherDisplay:10.37,2013-04-08 20:03:00,
2013-04-08 16:08:00,57.2,47.1,29.67,NW,315,15.4,23.0,69,0.00,CLR,,0.20,WeatherDisplay:10.37,2013-04-08 20:08:00,
2013-04-08 16:13:00,56.8,47.2,29.67,West,270,6.4,17.3,70,0.00,CLR,,0.20,WeatherDisplay:10.37,2013-04-08 20:13:00,
2013-04-08 16:18:00,57.0,47.3,29.67,West,270,7.4,15.0,70,0.00,CLR,,0.20,WeatherDisplay:10.37,2013-04-08 20:18:00,
2013-04-08 16:23:00,57.0,47.3,29.67,West,270,8.1,20.7,70,0.00,CLR,,0.20,WeatherDisplay:10.37,2013-04-08 20:23:00,
2013-04-08 16:28:00,56.7,46.6,29.67,NW,315,9.7,16.1,69,0.00,CLR,,0.20,WeatherDisplay:10.37,2013-04-08 20:28:00,
2013-04-08 16:33:00,55.9,45.9,29.67,NW,315,6.4,15.0,69,0.00,CLR,,0.20,WeatherDisplay:10.37,2013-04-08 20:33:00,
2013-04-08 16:38:00,55.6,45.6,29.68,NW,315,9.7,17.3,69,0.00,CLR,,0.20,WeatherDisplay:10.37,2013-04-08 20:38:00,
2013-04-08 16:43:00,54.5,44.9,29.68,North,0,10.5,18.4,70,0.00,CLR,,0.20,WeatherDisplay:10.37,2013-04-08 20:43:00,
2013-04-08 16:48:00,54.1,44.9,29.67,NW,315,12.8,15.0,71,0.00,CLR,,0.20,WeatherDisplay:10.37,2013-04-08 20:48:00,
2013-04-08 16:54:00,53.6,44.4,29.67,SW,225,8.1,23.0,71,0.00,CLR,,0.20,WeatherDisplay:10.37,2013-04-08 20:54:00,
2013-04-08 16:59:00,53.2,44.8,29.67,SW,225,5.7,23.0,73,0.00,CLR,,0.20,WeatherDisplay:10.37,2013-04-08 20:59:00,
2013-04-08 17:05:00,53.8,44.6,29.67,West,270,11.4,17.3,71,0.00,CLR,,0.20,WeatherDisplay:10.37,2013-04-08 21:05:00,
2013-04-08 17:10:00,53.4,44.6,29.67,NW,304,8.0,0.0,72,0.00,CLR,CLR,0.20,WeatherDisplay:10.37,2013-04-08 21:10:00,
2013-04-08 17:15:00,53.4,44.6,29.67,NW,315,4.7,12.7,72,0.00,CLR,,0.20,WeatherDisplay:10.37,2013-04-08 21:15:00,
2013-04-08 17:20:00,53.4,44.6,29.67,WNW,297,10.0,0.0,72,0.00,CLR,CLR,0.20,WeatherDisplay:10.37,2013-04-08 21:20:00,
2013-04-08 17:25:00,53.0,43.8,29.67,WNW,291,10.0,0.0,71,0.00,CLR,CLR,0.20,WeatherDisplay:10.37,2013-04-08 21:25:00,
2013-04-08 17:30:00,52.9,44.1,29.67,WNW,284,8.0,0.0,72,0.00,CLR,CLR,0.20,WeatherDisplay:10.37,2013-04-08 21:30:00,
2013-04-08 17:35:00,53.1,43.5,29.67,WNW,289,7.0,0.0,70,0.00,CLR,CLR,0.20,WeatherDisplay:10.37,2013-04-08 21:35:00,
2013-04-08 17:40:00,52.4,42.5,29.67,WNW,290,10.0,0.0,69,0.00,CLR,CLR,0.20,WeatherDisplay:10.37,2013-04-08 21:40:00,
2013-04-08 17:45:00,51.8,42.7,29.67,West,272,10.0,0.0,71,0.00,CLR,CLR,0.20,WeatherDisplay:10.37,2013-04-08 21:45:00,
2013-04-08 17:50:00,50.9,42.2,29.67,West,266,7.0,0.0,72,0.00,CLR,CLR,0.20,WeatherDisplay:10.37,2013-04-08 21:50:00,
2013-04-08 17:55:00,50.4,41.7,29.67,West,270,8.0,0.0,72,0.00,CLR,CLR,0.20,WeatherDisplay:10.37,2013-04-08 21:55:00,
2013-04-08 18:00:00,49.9,41.6,29.66,West,270,5.0,0.0,73,0.00,CLR,CLR,0.20,WeatherDisplay:10.37,2013-04-08 22:00:00,
2013-04-08 18:05:00,49.8,41.9,29.67,West,270,9.7,11.5,74,0.00,CLR,,0.20,WeatherDisplay:10.37,2013-04-08 22:05:00,
2013-04-08 18:10:00,49.3,41.3,29.67,West,270,6.4,15.0,74,0.00,CLR,,0.20,WeatherDisplay:10.37,2013-04-08 22:10:00,
2013-04-08 18:15:00,48.7,41.2,29.66,West,270,4.7,15.0,75,0.00,CLR,,0.20,WeatherDisplay:10.37,2013-04-08 22:15:00,
2013-04-08 18:20:00,48.9,41.3,29.67,West,270,6.4,6.4,75,0.00,CLR,,0.20,WeatherDisplay:10.37,2013-04-08 22:20:00,
2013-04-08 18:25:00,49.3,41.7,29.66,West,270,3.3,8.1,75,0.00,CLR,,0.20,WeatherDisplay:10.37,2013-04-08 22:25:00,
2013-04-08 18:30:00,49.5,41.5,29.66,West,270,6.4,10.4,74,0.00,CLR,,0.20,WeatherDisplay:10.37,2013-04-08 22:30:00,
2013-04-08 18:35:00,49.3,41.3,29.66,West,270,7.4,9.2,74,0.00,CLR,,0.20,WeatherDisplay:10.37,2013-04-08 22:35:00,
2013-04-08 18:40:00,49.5,41.5,29.66,West,270,5.7,9.2,74,0.00,CLR,,0.20,WeatherDisplay:10.37,2013-04-08 22:40:00,
2013-04-08 18:45:00,49.5,41.5,29.66,West,270,4.0,4.6,74,0.00,CLR,,0.20,WeatherDisplay:10.37,2013-04-08 22:45:00,
2013-04-08 18:50:00,49.8,41.9,29.66,West,270,4.7,9.2,74,0.00,CLR,,0.20,WeatherDisplay:10.37,2013-04-08 22:50:00,
2013-04-08 18:55:00,49.1,40.8,29.66,West,270,4.7,9.7,73,0.00,CLR,,0.20,WeatherDisplay:10.37,2013-04-08 22:55:00,
2013-04-08 19:00:00,48.6,40.6,29.67,West,270,4.7,9.2,74,0.00,CLR,,0.20,WeatherDisplay:10.37,2013-04-08 23:00:00,
2013-04-08 19:05:00,48.2,40.3,29.66,West,270,3.3,9.2,74,0.00,CLR,,0.20,WeatherDisplay:10.37,2013-04-08 23:05:00,
2013-04-08 19:10:00,47.3,39.8,29.67,West,270,4.7,9.2,75,0.00,CLR,,0.20,WeatherDisplay:10.37,2013-04-08 23:10:00,
2013-04-08 19:15:00,46.6,39.4,29.67,West,270,2.4,5.8,76,0.00,CLR,,0.20,WeatherDisplay:10.37,2013-04-08 23:15:00,
2013-04-08 19:20:00,46.2,40.1,29.69,West,270,2.4,4.6,79,0.00,CLR,,0.20,WeatherDisplay:10.37,2013-04-08 23:20:00,
2013-04-08 19:25:00,45.7,39.5,29.69,West,270,3.3,9.2,79,0.00,CLR,,0.20,WeatherDisplay:10.37,2013-04-08 23:25:00,
2013-04-08 19:30:00,45.1,39.3,29.69,West,270,2.4,9.2,80,0.00,CLR,,0.20,WeatherDisplay:10.37,2013-04-08 23:30:00,
2013-04-08 19:35:00,44.4,39.3,29.71,West,270,6.4,6.9,82,0.00,CLR,,0.20,WeatherDisplay:10.37,2013-04-08 23:35:00,
2013-04-08 19:40:00,43.7,38.9,29.71,West,270,5.7,6.4,83,0.00,CLR,,0.20,WeatherDisplay:10.37,2013-04-08 23:40:00,
2013-04-08 19:46:00,43.5,38.7,29.72,West,270,4.0,5.8,83,0.00,CLR,,0.20,WeatherDisplay:10.37,2013-04-08 23:46:00,
2013-04-08 19:51:00,43.2,38.7,29.73,West,270,3.3,5.8,84,0.00,CLR,,0.20,WeatherDisplay:10.37,2013-04-08 23:51:00,
2013-04-08 19:56:00,43.0,38.8,29.73,West,270,0.7,5.8,85,0.00,CLR,,0.20,WeatherDisplay:10.37,2013-04-08 23:56:00,
2013-04-08 20:01:00,43.0,38.8,29.73,West,270,4.7,5.8,85,0.00,CLR,,0.20,WeatherDisplay:10.37,2013-04-09 00:01:00,
2013-04-08 20:06:00,42.4,38.5,29.75,West,270,3.3,6.9,86,0.00,CLR,,0.20,WeatherDisplay:10.37,2013-04-09 00:06:00,
2013-04-08 20:11:00,42.3,38.4,29.75,West,270,0.7,2.3,86,0.00,CLR,,0.20,WeatherDisplay:10.37,2013-04-09 00:11:00,
2013-04-08 20:17:00,42.1,38.2,29.75,West,270,0.7,3.5,86,0.00,CLR,,0.20,WeatherDisplay:10.37,2013-04-09 00:17:00,
2013-04-08 20:22:00,41.9,38.0,29.75,West,270,0.7,4.6,86,0.00,CLR,,0.20,WeatherDisplay:10.37,2013-04-09 00:22:00,
2013-04-08 20:27:00,41.9,38.0,29.75,West,270,2.4,5.7,86,0.00,CLR,,0.20,WeatherDisplay:10.37,2013-04-09 00:27:00,
2013-04-08 20:32:00,41.5,38.0,29.76,West,270,3.3,4.6,87,0.00,CLR,,0.20,WeatherDisplay:10.37,2013-04-09 00:32:00,
2013-04-08 20:37:00,41.5,38.0,29.76,West,270,2.4,10.4,87,0.00,CLR,,0.20,WeatherDisplay:10.37,2013-04-09 00:37:00,
2013-04-08 20:42:00,41.2,37.6,29.76,West,270,3.3,6.9,87,0.00,CLR,,0.20,WeatherDisplay:10.37,2013-04-09 00:42:00,
2013-04-08 20:47:00,41.0,37.7,29.76,West,270,1.7,3.5,88,0.00,CLR,,0.20,WeatherDisplay:10.37,2013-04-09 00:47:00,
2013-04-08 20:52:00,40.8,37.8,29.76,West,270,2.4,8.1,89,0.00,CLR,,0.20,WeatherDisplay:10.37,2013-04-09 00:52:00,
2013-04-08 20:57:00,40.6,37.7,29.77,West,270,1.7,4.6,89,0.00,CLR,,0.20,WeatherDisplay:10.37,2013-04-09 00:57:00,
2013-04-08 21:02:00,40.6,37.9,29.77,West,270,1.7,6.9,90,0.00,CLR,,0.20,WeatherDisplay:10.37,2013-04-09 01:02:00,
2013-04-08 21:07:00,40.5,37.8,29.78,West,270,3.3,6.9,90,0.00,CLR,,0.20,WeatherDisplay:10.37,2013-04-09 01:07:00,
2013-04-08 21:12:00,40.3,37.9,29.78,West,270,5.7,9.2,91,0.00,CLR,,0.20,WeatherDisplay:10.37,2013-04-09 01:12:00,
2013-04-08 21:17:00,40.3,37.9,29.78,West,270,2.4,4.6,91,0.00,CLR,,0.20,WeatherDisplay:10.37,2013-04-09 01:17:00,
2013-04-08 21:22:00,40.1,37.7,29.79,West,270,1.7,6.9,91,0.00,CLR,,0.20,WeatherDisplay:10.37,2013-04-09 01:22:00,
2013-04-08 21:27:00,40.1,38.0,29.80,West,270,4.0,6.9,92,0.00,CLR,,0.20,WeatherDisplay:10.37,2013-04-09 01:27:00,
2013-04-08 21:32:00,40.1,38.0,29.80,West,270,2.4,6.9,92,0.00,CLR,,0.20,WeatherDisplay:10.37,2013-04-09 01:32:00,
2013-04-08 21:37:00,39.9,37.8,29.80,West,270,3.3,4.6,92,0.00,CLR,,0.20,WeatherDisplay:10.37,2013-04-09 01:37:00,
2013-04-08 21:42:00,39.9,38.1,29.80,West,270,1.7,6.9,93,0.00,CLR,,0.20,WeatherDisplay:10.37,2013-04-09 01:42:00,
2013-04-08 21:47:00,39.9,38.1,29.80,West,270,3.3,4.6,93,0.00,CLR,,0.20,WeatherDisplay:10.37,2013-04-09 01:47:00,
2013-04-08 21:52:00,39.9,38.1,29.81,West,270,2.4,4.6,93,0.00,CLR,,0.20,WeatherDisplay:10.37,2013-04-09 01:52:00,
2013-04-08 21:57:00,39.7,38.2,29.81,West,270,1.7,3.5,94,0.00,CLR,,0.20,WeatherDisplay:10.37,2013-04-09 01:57:00,
2013-04-08 22:02:00,39.7,38.2,29.81,West,270,0.7,3.5,94,0.00,CLR,,0.20,WeatherDisplay:10.37,2013-04-09 02:02:00,
2013-04-08 22:07:00,39.9,38.3,29.82,West,270,3.3,4.6,94,0.00,CLR,,0.20,WeatherDisplay:10.37,2013-04-09 02:07:00,
2013-04-08 22:12:00,39.9,38.3,29.82,West,270,0.7,6.9,94,0.00,CLR,,0.20,WeatherDisplay:10.37,2013-04-09 02:12:00,
2013-04-08 22:17:00,40.1,38.5,29.83,West,270,0.0,1.1,94,0.00,CLR,,0.20,WeatherDisplay:10.37,2013-04-09 02:17:00,
2013-04-08 22:23:00,40.3,38.7,29.84,West,270,1.7,2.3,94,0.00,CLR,,0.20,WeatherDisplay:10.37,2013-04-09 02:23:00,
2013-04-08 22:28:00,40.3,39.0,29.84,West,270,1.7,2.3,95,0.00,CLR,,0.20,WeatherDisplay:10.37,2013-04-09 02:28:00,
2013-04-08 22:33:00,40.3,39.0,29.85,West,270,2.4,3.5,95,0.00,CLR,,0.20,WeatherDisplay:10.37,2013-04-09 02:33:00,
2013-04-08 22:38:00,40.3,39.0,29.85,West,270,0.7,3.5,95,0.00,CLR,,0.20,WeatherDisplay:10.37,2013-04-09 02:38:00,
2013-04-08 22:43:00,40.3,39.0,29.85,West,270,1.7,3.5,95,0.00,CLR,,0.20,WeatherDisplay:10.37,2013-04-09 02:43:00,
2013-04-08 22:48:00,40.3,39.0,29.85,West,270,1.7,2.4,95,0.00,CLR,,0.20,WeatherDisplay:10.37,2013-04-09 02:48:00,
2013-04-08 22:53:00,40.3,39.0,29.86,West,270,0.7,1.7,95,0.00,CLR,,0.20,WeatherDisplay:10.37,2013-04-09 02:53:00,
2013-04-08 22:58:00,40.3,39.0,29.86,West,270,1.7,2.3,95,0.00,CLR,,0.20,WeatherDisplay:10.37,2013-04-09 02:58:00,
2013-04-08 23:04:00,40.5,39.1,29.85,West,270,1.7,2.3,95,0.00,CLR,,0.20,WeatherDisplay:10.37,2013-04-09 03:04:00,
2013-04-08 23:09:00,40.5,39.1,29.86,West,270,2.4,4.6,95,0.00,CLR,,0.20,WeatherDisplay:10.37,2013-04-09 03:09:00,
2013-04-08 23:14:00,40.5,39.1,29.87,West,270,0.7,3.5,95,0.00,CLR,,0.20,WeatherDisplay:10.37,2013-04-09 03:14:00,
2013-04-08 23:19:00,40.5,39.1,29.87,West,270,1.7,3.5,95,0.00,CLR,,0.20,WeatherDisplay:10.37,2013-04-09 03:19:00,
2013-04-08 23:24:00,40.5,39.4,29.87,West,270,1.7,4.6,96,0.00,CLR,,0.20,WeatherDisplay:10.37,2013-04-09 03:24:00,
2013-04-08 23:29:00,40.5,39.4,29.87,West,270,1.7,2.3,96,0.00,CLR,,0.20,WeatherDisplay:10.37,2013-04-09 03:29:00,
2013-04-08 23:34:00,40.5,39.4,29.88,West,270,1.7,4.0,96,0.00,CLR,,0.20,WeatherDisplay:10.37,2013-04-09 03:34:00,
2013-04-08 23:40:00,40.5,39.4,29.88,West,270,0.7,3.5,96,0.00,CLR,,0.20,WeatherDisplay:10.37,2013-04-09 03:40:00,
2013-04-08 23:45:00,40.5,39.4,29.88,West,270,1.0,0.0,96,0.00,CLR,CLR,0.20,WeatherDisplay:10.37,2013-04-09 03:45:00,
2013-04-08 23:50:00,40.5,39.4,29.88,West,270,1.7,3.5,96,0.00,CLR,,0.20,WeatherDisplay:10.37,2013-04-09 03:50:00,
2013-04-08 23:56:00,40.5,39.4,29.88,West,270,0.7,2.3,96,0.00,CLR,,0.20,WeatherDisplay:10.37,2013-04-09 03:56:00,